Time,TemperatureF,DewpointF,PressureIn,WindDirection,WindDirectionDegrees,WindSpeedMPH,WindSpeedGustMPH,Humidity,HourlyPrecipIn,Conditions,Clouds,dailyrainin,SoftwareType,DateUTC
2013-02-20 00:05:00,36.0,-99.9,-100.00,WSW,253,1.0,-999.0,-999,-99.99,,,-99.99,,2013-02-20 08:05:00,
2013-02-20 00:11:00,36.0,-99.9,-100.00,WSW,253,1.0,-999.0,-999,-99.99,,,-99.99,,2013-02-20 08:11:00,
2013-02-20 00:20:00,36.0,-99.9,-100.00,WNW,282,1.0,-999.0,-999,-99.99,,,-99.99,,2013-02-20 08:20:00,
2013-02-20 01:02:00,36.0,-99.9,-100.00,WNW,282,1.0,-999.0,-999,-99.99,,,-99.99,,2013-02-20 09:02:00,
2013-02-20 01:11:00,36.0,-99.9,-100.00,WNW,282,1.0,-999.0,-999,-99.99,,,-99.99,,2013-02-20 09:11:00,
2013-02-20 01:20:00,36.0,-99.9,-100.00,SW,222,1.0,-999.0,-999,-99.99,,,-99.99,,2013-02-20 09:20:00,
2013-02-20 02:01:00,36.0,-99.9,-100.00,SW,222,1.0,-999.0,-999,-99.99,,,-99.99,,2013-02-20 10:01:00,
2013-02-20 02:12:00,36.0,-99.9,-100.00,SW,222,1.0,-999.0,-999,-99.99,,,-99.99,,2013-02-20 10:12:00,
2013-02-20 02:20:00,38.0,-99.9,-100.00,West,262,6.0,-999.0,-999,-99.99,,,-99.99,,2013-02-20 10:20:00,
2013-02-20 03:02:00,38.0,-99.9,-100.00,West,262,6.0,-999.0,-999,-99.99,,,-99.99,,2013-02-20 11:02:00,
2013-02-20 03:11:00,38.0,-99.9,-100.00,West,262,6.0,-999.0,-999,-99.99,,,-99.99,,2013-02-20 11:11:00,
2013-02-20 03:20:00,39.0,-99.9,-100.00,North,0,0.0,-999.0,-999,-99.99,,,-99.99,,2013-02-20 11:20:00,
2013-02-20 04:02:00,39.0,-99.9,-100.00,North,0,0.0,-999.0,-999,-99.99,,,-99.99,,2013-02-20 12:02:00,
2013-02-20 04:12:00,39.0,-99.9,-100.00,North,0,0.0,-999.0,-999,-99.99,,,-99.99,,2013-02-20 12:12:00,
2013-02-20 04:20:00,39.0,-99.9,-100.00,North,0,0.0,-999.0,-999,-99.99,,,-99.99,,2013-02-20 12:20:00,
2013-02-20 05:02:00,39.0,-99.9,-100.00,North,0,0.0,-999.0,-999,-99.99,,,-99.99,,2013-02-20 13:02:00,
2013-02-20 05:12:00,39.0,-99.9,-100.00,North,0,0.0,-999.0,-999,-99.99,,,-99.99,,2013-02-20 13:12:00,
2013-02-20 05:20:00,39.0,-99.9,-100.00,North,0,0.0,-999.0,-999,-99.99,,,-99.99,,2013-02-20 13:20:00,
2013-02-20 06:01:00,39.0,-99.9,-100.00,North,0,0.0,-999.0,-999,-99.99,,,-99.99,,2013-02-20 14:01:00,
2013-02-20 06:11:00,39.0,-99.9,-100.00,North,0,0.0,-999.0,-999,-99.99,,,-99.99,,2013-02-20 14:11:00,
2013-02-20 06:20:00,40.0,-99.9,-100.00,SSW,205,0.0,-999.0,-999,-99.99,,,-99.99,,2013-02-20 14:20:00,
2013-02-20 07:02:00,40.0,-99.9,-100.00,SSW,205,0.0,-999.0,-999,-99.99,,,-99.99,,2013-02-20 15:02:00,
2013-02-20 07:12:00,40.0,-99.9,-100.00,SSW,205,0.0,-999.0,-999,-99.99,,,-99.99,,2013-02-20 15:12:00,
2013-02-20 07:20:00,41.0,-99.9,-100.00,South,176,0.0,-999.0,-999,-99.99,,,-99.99,,2013-02-20 15:20:00,
2013-02-20 08:01:00,41.0,-99.9,-100.00,South,176,0.0,-999.0,-999,-99.99,,,-99.99,,2013-02-20 16:01:00,
2013-02-20 08:12:00,41.0,-99.9,-100.00,South,176,0.0,-999.0,-999,-99.99,,,-99.99,,2013-02-20 16:12:00,
2013-02-20 08:20:00,42.0,-99.9,-100.00,SSE,167,10.0,-999.0,-999,-99.99,,,-99.99,,2013-02-20 16:20:00,
2013-02-20 09:01:00,42.0,-99.9,-100.00,SSE,167,10.0,-999.0,-999,-99.99,,,-99.99,,2013-02-20 17:01:00,
2013-02-20 09:12:00,42.0,-99.9,-100.00,SSE,167,10.0,-999.0,-999,-99.99,,,-99.99,,2013-02-20 17:12:00,
2013-02-20 09:20:00,41.0,-99.9,-100.00,SSE,159,18.0,-999.0,-999,-99.99,,,-99.99,,2013-02-20 17:20:00,
2013-02-20 10:02:00,41.0,-99.9,-100.00,SSE,159,18.0,-999.0,-999,-99.99,,,-99.99,,2013-02-20 18:02:00,
2013-02-20 10:11:00,41.0,-99.9,-100.00,SSE,159,18.0,-999.0,-999,-99.99,,,-99.99,,2013-02-20 18:11:00,
2013-02-20 10:20:00,42.0,-99.9,-100.00,SE,144,14.0,-999.0,-999,-99.99,,,-99.99,,2013-02-20 18:20:00,
2013-02-20 11:02:00,42.0,-99.9,-100.00,SE,144,14.0,-999.0,-999,-99.99,,,-99.99,,2013-02-20 19:02:00,
2013-02-20 11:12:00,42.0,-99.9,-100.00,SE,144,14.0,-999.0,-999,-99.99,,,-99.99,,2013-02-20 19:12:00,
2013-02-20 11:20:00,44.0,-99.9,-100.00,South,170,12.0,-999.0,-999,-99.99,,,-99.99,,2013-02-20 19:20:00,
2013-02-20 12:01:00,44.0,-99.9,-100.00,South,170,12.0,-999.0,-999,-99.99,,,-99.99,,2013-02-20 20:01:00,
2013-02-20 12:11:00,44.0,-99.9,-100.00,South,170,12.0,-999.0,-999,-99.99,,,-99.99,,2013-02-20 20:11:00,
2013-02-20 12:20:00,44.0,-99.9,-100.00,SE,141,22.0,-999.0,-999,-99.99,,,-99.99,,2013-02-20 20:20:00,
2013-02-20 13:02:00,44.0,-99.9,-100.00,SE,141,22.0,-999.0,-999,-99.99,,,-99.99,,2013-02-20 21:02:00,
2013-02-20 13:11:00,44.0,-99.9,-100.00,SE,141,22.0,-999.0,-999,-99.99,,,-99.99,,2013-02-20 21:11:00,
2013-02-20 13:20:00,45.0,-99.9,-100.00,SSE,161,14.0,-999.0,-999,-99.99,,,-99.99,,2013-02-20 21:20:00,
2013-02-20 14:02:00,45.0,-99.9,-100.00,SSE,161,14.0,-999.0,-999,-99.99,,,-99.99,,2013-02-20 22:02:00,
2013-02-20 14:11:00,45.0,-99.9,-100.00,SSE,161,14.0,-999.0,-999,-99.99,,,-99.99,,2013-02-20 22:11:00,
2013-02-20 14:20:00,45.0,-99.9,-100.00,SE,136,15.0,-999.0,-999,-99.99,,,-99.99,,2013-02-20 22:20:00,
2013-02-20 15:01:00,45.0,-99.9,-100.00,SE,136,15.0,-999.0,-999,-99.99,,,-99.99,,2013-02-20 23:01:00,
2013-02-20 15:12:00,45.0,-99.9,-100.00,SE,136,15.0,-999.0,-999,-99.99,,,-99.99,,2013-02-20 23:12:00,
2013-02-20 15:20:00,45.0,-99.9,-100.00,SE,146,3.0,-999.0,-999,-99.99,,,-99.99,,2013-02-20 23:20:00,
2013-02-20 16:03:00,45.0,-99.9,-100.00,SE,146,3.0,-999.0,-999,-99.99,,,-99.99,,2013-02-21 00:03:00,
2013-02-20 16:11:00,45.0,-99.9,-100.00,SE,146,3.0,-999.0,-999,-99.99,,,-99.99,,2013-02-21 00:11:00,
2013-02-20 16:20:00,43.0,-99.9,-100.00,SSW,198,8.0,-999.0,-999,-99.99,,,-99.99,,2013-02-21 00:20:00,
2013-02-20 17:01:00,43.0,-99.9,-100.00,SSW,198,8.0,-999.0,-999,-99.99,,,-99.99,,2013-02-21 01:01:00,
2013-02-20 17:12:00,43.0,-99.9,-100.00,SSW,198,8.0,-999.0,-999,-99.99,,,-99.99,,2013-02-21 01:12:00,
2013-02-20 17:20:00,43.0,-99.9,-100.00,SE,126,6.0,-999.0,-999,-99.99,,,-99.99,,2013-02-21 01:20:00,
2013-02-20 18:02:00,43.0,-99.9,-100.00,SE,126,6.0,-999.0,-999,-99.99,,,-99.99,,2013-02-21 02:02:00,
2013-02-20 18:11:00,43.0,-99.9,-100.00,SE,126,6.0,-999.0,-999,-99.99,,,-99.99,,2013-02-21 02:11:00,
2013-02-20 18:20:00,42.0,-99.9,-100.00,SSE,153,5.0,-999.0,-999,-99.99,,,-99.99,,2013-02-21 02:20:00,
2013-02-20 19:02:00,42.0,-99.9,-100.00,SSE,153,5.0,-999.0,-999,-99.99,,,-99.99,,2013-02-21 03:02:00,
2013-02-20 19:12:00,42.0,-99.9,-100.00,SSE,153,5.0,-999.0,-999,-99.99,,,-99.99,,2013-02-21 03:12:00,
2013-02-20 19:20:00,43.0,-99.9,-100.00,SE,129,7.0,-999.0,-999,-99.99,,,-99.99,,2013-02-21 03:20:00,
2013-02-20 20:01:00,43.0,-99.9,-100.00,SE,129,7.0,-999.0,-999,-99.99,,,-99.99,,2013-02-21 04:01:00,
2013-02-20 20:11:00,43.0,-99.9,-100.00,SE,129,7.0,-999.0,-999,-99.99,,,-99.99,,2013-02-21 04:11:00,
2013-02-20 20:20:00,43.0,-99.9,-100.00,SSE,162,5.0,-999.0,-999,-99.99,,,-99.99,,2013-02-21 04:20:00,
2013-02-20 21:03:00,43.0,-99.9,-100.00,SSE,162,5.0,-999.0,-999,-99.99,,,-99.99,,2013-02-21 05:03:00,
2013-02-20 21:12:00,43.0,-99.9,-100.00,SSE,162,5.0,-999.0,-999,-99.99,,,-99.99,,2013-02-21 05:12:00,
2013-02-20 21:20:00,42.0,-99.9,-100.00,SW,232,1.0,-999.0,-999,-99.99,,,-99.99,,2013-02-21 05:20:00,
2013-02-20 22:02:00,42.0,-99.9,-100.00,SW,232,1.0,-999.0,-999,-99.99,,,-99.99,,2013-02-21 06:02:00,
2013-02-20 22:11:00,42.0,-99.9,-100.00,SW,232,1.0,-999.0,-999,-99.99,,,-99.99,,2013-02-21 06:11:00,
2013-02-20 22:20:00,42.0,-99.9,-100.00,WSW,239,5.0,-999.0,-999,-99.99,,,-99.99,,2013-02-21 06:20:00,
2013-02-20 23:01:00,42.0,-99.9,-100.00,WSW,239,5.0,-999.0,-999,-99.99,,,-99.99,,2013-02-21 07:01:00,
2013-02-20 23:11:00,42.0,-99.9,-100.00,WSW,239,5.0,-999.0,-999,-99.99,,,-99.99,,2013-02-21 07:11:00,
2013-02-20 23:20:00,42.0,-99.9,-100.00,SE,124,6.0,-999.0,-999,-99.99,,,-99.99,,2013-02-21 07:20:00,